LEMUR-2-NEVA (47450 NORAD) Tracking and Keplerian Element Data

This shows tracking and keplerian element data for the satellite.

Feedback or suggestion? Click here.




ElementValue
Catalog47450
NameLEMUR-2-NEVA
Epoch Orbit1168
Epoch Day99.87536457
Epoch Year2021
RAAN162.3471
Inclination97.5001
Eccentricity0.0011215
Argument of Perigee347.1606
Mean Anonmoly12.9337
Mean Motion15.12876569
Decay Rate1.402E-05
L11 47450U 21006AP 21099.87536457 .00001402 00000-0 83278-4 0 9994
L22 47450 97.5001 162.3471 0011215 347.1606 12.9337 15.12876569 11686

Live tracking and technical data element details for LEMUR-2-NEVA (NORAD 47450). LEMUR-2-NEVA can be tracked NOW for your location showing map with azimuth and elevation plus other details from your city location.

Track the satellite on the map from your city or location and see movement details for azimuth, elevation, latitude, longitude, range, height, and movement on the map or in text.







IsCatalogInMostPopularTable: catalog: 47450, numindb: 16
Update: records affected: 1



GetName: 47450 LEMUR-2-NEVA

Hit Count: updated at: Sat, 10 Apr 2021 19:49:54 GMT